x

Ilm2 - 5 Miles Se Of Wrightsville Beach, Nc (41038) Weather Station

5:08 - Mon 25th May 2015 All times are EDT. -4 hours from GMT.

  • Wind
    9mph, 13mph gusts
  • Sea Temp 77°f
  • Aire Temp 75°f
  • Sea Pressure 1026mb
  • Ilm2 - 5 Miles Se Of Wrightsville Beach, Nc
  • Ilm2 - 5 Miles Se Of Wrightsville Beach, Nc

More Historic Weather Station data

Upgrade to MSW Pro to gain access to the past 30 days of data for over 8000 Wavebouys and Weather Stations around the globe.

Join Pro

Comparision Forecast

View Surf forecast
   
lun 05/25 5:08 9 13 mph 1026mb 77f 75f
4:53 9 13 mph 1026.1mb 77f 75f
4:38 11 16 mph 1026.1mb 77f 75f
4:23 11 16 mph 1026.2mb 77f 75f
4:08 11 16 mph 1026.2mb 77f 75f
3:53 11 16 mph 1026.3mb 77f 75f
3:38 11 16 mph 1026.4mb 77f 75f
3:23 9 13 mph 1026.4mb 77f 75f
3:08 9 13 mph 1026.6mb 77f 75f
2:53 9 13 mph 1026.7mb 77f 75f
2:38 9 13 mph 1026.8mb 77f 75f
2:23 9 13 mph 1026.8mb 77f 75f
2:08 9 13 mph 1027.2mb 77f 75f
1:53 9 13 mph 1027.3mb 77f 75f
1:38 9 13 mph 1027.4mb 77f 75f
1:23 9 13 mph 1027.6mb 77f 75f
1:08 9 13 mph 1027.6mb 77f 75f
12:53 9 13 mph 1027.6mb 77f 75f
12:38 9 13 mph 1027.8mb 77f 75f
12:23 9 13 mph 1027.8mb 77f 74f
12:08 9 13 mph 1027.9mb 76f 74f
11:53 11 16 mph 1027.8mb 76f 74f
11:38 9 11 mph 1027.8mb 76f 74f
11:23 9 13 mph 1027.9mb 76f 74f
11:08 9 13 mph 1028mb 76f 74f
10:53 11 16 mph 1028mb 76f 74f
10:38 9 16 mph 1027.9mb 76f 74f
10:23 9 13 mph 1027.8mb 76f 74f
10:08 11 13 mph 1027.9mb 76f 74f
9:53 9 13 mph 1027.9mb 76f 74f
9:38 9 13 mph 1027.9mb 76f 74f
9:23 11 16 mph 1027.8mb 76f 75f
9:08 9 13 mph 1027.8mb 76f 75f
8:53 11 13 mph 1027.8mb 76f 75f
8:38 9 13 mph 1027.6mb 76f 75f
8:23 9 16 mph 1027.6mb 76f 75f
8:08 9 13 mph 1027.5mb 76f 74f
7:53 11 13 mph 1027.5mb 76f 74f
7:38 9 16 mph 1027.4mb 76f 74f
7:23 9 13 mph 1027.3mb 76f 74f
7:08 9 13 mph 1027.2mb 76f 74f
6:53 9 13 mph 1027.1mb 76f 74f
6:38 11 16 mph 1026.9mb 76f 74f
6:23 9 16 mph 1027mb 76f 74f
6:08 11 16 mph 1026.9mb 76f 73f
5:08 9 13 mph 1026.4mb 76f 73f
4:53 9 13 mph 1026.4mb 76f 73f
4:38 9 13 mph 1026.5mb 76f 73f
4:23 9 13 mph 1026.7mb 76f 73f
4:08 9 13 mph 1026.7mb 76f 74f
3:53 9 16 mph 1026.6mb 76f 73f
3:38 9 13 mph 1026.6mb 76f 74f
3:23 11 16 mph 1026.6mb 76f 74f
3:08 9 13 mph 1026.5mb 76f 74f
2:53 11 16 mph 1026.6mb 76f 74f
2:38 11 16 mph 1026.6mb 76f 74f
2:23 11 16 mph 1026.6mb 76f 74f
2:08 11 16 mph 1026.7mb 76f 74f
1:53 11 16 mph 1026.8mb 76f 74f
1:38 13 18 mph 1026.9mb 76f 74f
1:23 13 20 mph 1026.7mb 76f 74f
1:08 13 16 mph 1026.9mb 76f 74f
12:53 11 18 mph 1027.2mb 76f 74f
12:38 13 18 mph 1027.1mb 76f 74f
12:23 13 18 mph 1027.4mb 76f 74f
12:08 13 20 mph 1027.3mb 76f 74f
dom 05/24 11:53 13 18 mph 1027.4mb 76f 74f
11:38 13 18 mph 1027.5mb 76f 74f
11:23 11 16 mph 1027.6mb 76f 75f
11:08 11 18 mph 1027.5mb 76f 74f
10:53 13 18 mph 1027.6mb 76f 75f
10:38 13 18 mph 1027.6mb 76f 75f
10:23 11 16 mph 1027.7mb 76f 75f
10:08 9 16 mph 1027.4mb 76f 75f
9:53 11 16 mph 1027.3mb 76f 75f
9:38 11 16 mph 1027.2mb 76f 75f
9:23 9 16 mph 1027.2mb 76f 75f
9:08 11 16 mph 1027mb 76f 75f
8:53 11 13 mph 1027mb 76f 75f
8:38 9 13 mph 1027mb 76f 75f
8:23 11 16 mph 1027mb 77f 75f
8:08 11 16 mph 1027.1mb 77f 75f
7:53 11 16 mph 1026.9mb 77f 75f
7:38 11 13 mph 1027mb 77f 75f
7:23 9 13 mph 1027.2mb 77f 75f
7:08 9 13 mph 1027.1mb 77f 75f
6:53 9 13 mph 1027.1mb 77f 75f
6:38 9 13 mph 1027.2mb 77f 76f
6:23 9 13 mph 1027.3mb 77f 76f
6:08 9 11 mph 1027.4mb 77f 76f
5:53 9 13 mph 1027.5mb 77f 76f
5:38 9 13 mph 1027.7mb 77f 75f
5:23 9 13 mph 1027.8mb 77f 75f
5:08 9 13 mph 1027.9mb 77f 75f
4:53 9 13 mph 1027.9mb 77f 75f
4:38 9 11 mph 1028.2mb 77f 75f
4:23 9 13 mph 1028.2mb 77f 75f
4:08 9 16 mph 1028.3mb 77f 75f
3:53 9 13 mph 1028.4mb 77f 75f
3:38 11 13 mph 1028.5mb 77f 76f
3:23 11 16 mph 1028.5mb 77f 75f
3:08 9 13 mph 1028.6mb 77f 75f
2:53 9 13 mph 1028.7mb 77f 75f
2:38 9 13 mph 1028.8mb 77f 75f
2:23 9 13 mph 1028.8mb 77f 75f
2:08 9 13 mph 1029mb 77f 75f
1:53 9 13 mph 1029mb 77f 75f
1:38 9 13 mph 1029.1mb 77f 75f
1:23 9 13 mph 1029.2mb 77f 75f
1:08 9 13 mph 1029.1mb 76f 75f
12:53 9 13 mph 1029.4mb 76f 75f
12:38 11 16 mph 1029.4mb 76f 75f
12:23 9 13 mph 1029.4mb 76f 75f
12:08 11 16 mph 1029.6mb 76f 75f
11:53 11 13 mph 1029.7mb 76f 75f
11:38 9 13 mph 1029.8mb 76f 75f
11:23 9 16 mph 1029.8mb 76f 75f
11:08 9 13 mph 1029.7mb 76f 75f
10:53 11 16 mph 1029.5mb 76f 75f
10:38 11 16 mph 1029.5mb 76f 75f
10:23 11 16 mph 1029.5mb 76f 75f
10:08 11 16 mph 1029.5mb 76f 75f
9:53 9 16 mph 1029.7mb 76f 75f
9:38 9 16 mph 1029.6mb 76f 75f
9:23 11 16 mph 1029.5mb 76f 75f
9:08 9 16 mph 1029.6mb 76f 75f
8:53 9 16 mph 1029.6mb 76f 75f
8:38 11 16 mph 1029.5mb 76f 75f
8:23 11 16 mph 1029.4mb 76f 75f
8:08 11 18 mph 1029.4mb 76f 75f
7:53 11 16 mph 1029.2mb 76f 75f
7:38 9 13 mph 1029.2mb 76f 75f
7:23 9 13 mph 1029.1mb 76f 75f
7:08 11 16 mph 1029mb 76f 75f
6:53 11 13 mph 1028.8mb 76f 74f
6:38 9 16 mph 1028.7mb 76f 74f
6:23 11 16 mph 1028.6mb 76f 74f
6:08 11 16 mph 1028.5mb 76f 74f
5:53 9 13 mph 1028.4mb 76f 74f
5:38 13 16 mph 1028.3mb 76f 74f
5:23 11 16 mph 1028.3mb 76f 74f
5:08 11 18 mph 1028.1mb 76f 74f
4:53 11 18 mph 1028.1mb 76f 74f
4:38 13 20 mph 1028mb 76f 74f
4:23 13 18 mph 1027.8mb 76f 74f
4:08 13 18 mph 1027.7mb 76f 74f
3:53 11 16 mph 1027.8mb 76f 74f
3:38 11 16 mph 1027.8mb 76f 74f
3:23 11 16 mph 1027.8mb 76f 74f
3:08 11 16 mph 1027.8mb 76f 74f
2:53 11 16 mph 1027.6mb 76f 75f
2:38 11 16 mph 1027.7mb 76f 75f
2:23 11 18 mph 1028mb 76f 75f
2:08 13 18 mph 1027.8mb 76f 75f
1:53 13 20 mph 1027.9mb 76f 75f
1:38 13 18 mph 1027.8mb 76f 75f
1:23 13 18 mph 1027.9mb 76f 75f
1:08 16 20 mph 1028.1mb 76f 75f
12:53 13 20 mph 1028.1mb 76f 75f
12:38 13 20 mph 1028.2mb 76f 74f
12:23 13 18 mph 1028.2mb 76f 74f
12:08 13 18 mph 1028.4mb 76f 74f
sáb 05/23 11:53 13 20 mph 1028.2mb 76f 74f
11:38 13 20 mph 1028.5mb 76f 74f
11:23 13 18 mph 1028.5mb 76f 74f
11:08 16 20 mph 1028.6mb 76f 74f
10:53 16 20 mph 1028.8mb 76f 74f
10:38 16 20 mph 1028.8mb 76f 74f
10:23 13 20 mph 1028.8mb 76f 74f
10:08 16 18 mph 1028.6mb 76f 74f
9:53 16 20 mph 1028.5mb 76f 74f
9:08 13 20 mph 1028.3mb 76f 74f
8:53 13 20 mph 1028.3mb 76f 74f
8:38 13 18 mph 1028.4mb 76f 74f
8:23 13 18 mph 1028.3mb 75f 74f
8:08 13 18 mph 1028.2mb 75f 74f
7:53 13 18 mph 1028.2mb 75f 74f
7:38 13 18 mph 1028.2mb 75f 74f
7:23 13 18 mph 1028.3mb 75f 74f
7:08 11 16 mph 1028.3mb 75f 74f
6:53 11 16 mph 1028.4mb 75f 75f
6:38 11 16 mph 1028.5mb 75f 75f
6:23 11 16 mph 1028.6mb 76f 74f
6:08 11 16 mph 1028.6mb 76f 74f
5:53 11 16 mph 1028.7mb 76f 74f
5:38 11 16 mph 1028.8mb 76f 74f
5:23 11 18 mph 1028.7mb 76f 74f
5:08 11 16 mph 1028.8mb 76f 74f
4:53 13 18 mph 1028.7mb 76f 74f
4:38 13 16 mph 1028.8mb 76f 74f
4:23 13 18 mph 1028.9mb 76f 74f
4:08 13 18 mph 1028.9mb 76f 74f
3:53 13 16 mph 1029mb 76f 74f
3:38 11 18 mph 1029mb 76f 74f
3:23 11 18 mph 1029.1mb 76f 74f
3:08 11 18 mph 1029.4mb 76f 74f
2:53 11 16 mph 1029.5mb 76f 74f
2:38 11 16 mph 1029.4mb 76f 73f
2:23 11 18 mph 1029.5mb 76f 73f
2:08 11 16 mph 1029.6mb 76f 73f
1:53 11 18 mph 1029.5mb 76f 73f
1:38 11 16 mph 1029.5mb 76f 73f
1:23 11 16 mph 1029.5mb 76f 73f
1:08 11 16 mph 1029.6mb 76f 72f
12:53 11 16 mph 1029.6mb 76f 72f
12:38 11 16 mph 1029.8mb 76f 72f
12:23 11 13 mph 1029.7mb 76f 72f
12:08 9 13 mph 1029.8mb 76f 72f
11:53 9 13 mph 1029.7mb 76f 72f
11:38 11 16 mph 1029.5mb 76f 72f
11:23 11 16 mph 1029.5mb 76f 72f
11:08 11 16 mph 1029.5mb 76f 72f
10:53 11 16 mph 1029.5mb 76f 72f
10:38 11 13 mph 1029.4mb 76f 72f
10:23 11 16 mph 1029.5mb 76f 72f
10:08 11 16 mph 1029.5mb 76f 72f
9:53 11 18 mph 1029.3mb 76f 72f
9:38 9 13 mph 1029.3mb 76f 72f
9:23 9 13 mph 1029.3mb 76f 72f
9:08 11 18 mph 1029.1mb 76f 72f
8:53 11 16 mph 1028.9mb 76f 72f
8:38 11 18 mph 1028.7mb 76f 71f
8:23 11 18 mph 1028.5mb 76f 71f
8:08 11 18 mph 1028.3mb 76f 71f
7:53 11 16 mph 1028.1mb 76f 71f
7:38 11 16 mph 1028mb 76f 71f
7:23 13 18 mph 1027.8mb 76f 71f
7:08 13 16 mph 1027.7mb 76f 71f
6:53 11 16 mph 1027.5mb 76f 71f
6:38 11 16 mph 1027.3mb 76f 71f
6:23 11 16 mph 1027.1mb 76f 71f
6:08 11 16 mph 1026.9mb 76f 70f
5:53 11 16 mph 1026.5mb 76f 70f
5:08 11 16 mph 1025.8mb 76f 70f
4:53 11 13 mph 1025.6mb 76f 71f
4:38 9 13 mph 1025.6mb 76f 71f
4:23 11 16 mph 1025.5mb 76f 70f
4:08 9 16 mph 1025.3mb 76f 70f
3:53 9 16 mph 1025.3mb 76f 70f
3:38 9 13 mph 1025.2mb 76f 71f
3:23 9 13 mph 1025.1mb 76f 71f
3:08 9 13 mph 1025.1mb 76f 71f
2:53 9 13 mph 1025.1mb 76f 71f
2:38 9 11 mph 1025mb 76f 71f
2:23 9 13 mph 1024.9mb 76f 71f
2:08 9 13 mph 1025mb 76f 71f
1:53 9 11 mph 1024.9mb 76f 71f
1:38 9 13 mph 1025.1mb 76f 71f
1:23 7 11 mph 1025.2mb 76f 71f
1:08 9 11 mph 1025.2mb 76f 71f
12:53 9 13 mph 1025.2mb 76f 71f
12:38 9 13 mph 1025.1mb 76f 71f
12:23 9 11 mph 1025.2mb 76f 71f
12:08 9 13 mph 1025.2mb 76f 71f
vie 05/22 11:53 7 11 mph 1025.1mb 76f 71f
11:38 7 13 mph 1025mb 76f 71f
11:23 9 13 mph 1024.8mb 76f 71f
11:08 7 11 mph 1024.8mb 76f 71f
10:53 7 11 mph 1024.7mb 76f 71f
10:38 7 11 mph 1024.6mb 76f 71f
10:23 7 9 mph 1024.5mb 76f 71f
10:08 4 11 mph 1024.3mb 76f 71f
9:53 7 11 mph 1024.2mb 76f 71f
9:38 4 11 mph 1023.9mb 76f 70f
9:23 4 7 mph 1023.6mb 76f 70f
9:08 4 7 mph 1023.5mb 76f 70f
8:53 4 9 mph 1023.5mb 76f 70f
8:38 4 9 mph 1023.4mb 76f 70f
8:23 4 7 mph 1023.3mb 76f 70f
8:08 4 9 mph 1023.1mb 76f 70f
7:53 4 7 mph 1022.9mb 76f 70f
7:38 4 7 mph 1022.6mb 76f 71f
7:23 4 9 mph 1022.4mb 76f 71f
7:08 7 9 mph 1022.2mb 76f 70f
6:53 7 11 mph 1022.2mb 77f 70f
6:38 7 9 mph 1022.1mb 77f 71f
6:23 7 9 mph 1022.1mb 77f 71f
6:08 4 9 mph 1022.1mb 77f 70f
5:53 7 11 mph 1022.1mb 77f 70f
5:38 7 11 mph 1022.2mb 76f 69f
5:23 4 9 mph 1022.2mb 77f 70f
5:08 7 11 mph 1022.1mb 77f 70f
4:53 4 9 mph 1022.1mb 77f 69f
4:38 7 11 mph 1021.9mb 77f 69f
4:23 4 9 mph 1021.9mb 77f 68f
4:08 7 9 mph 1021.9mb 77f 69f
3:53 7 11 mph 1021.9mb 77f 68f
3:38 7 9 mph 1022mb 77f 68f
3:23 4 13 mph 1021.9mb 76f 68f
3:08 7 11 mph 1021.9mb 76f 68f
2:53 7 11 mph 1021.9mb 76f 68f
2:38 7 11 mph 1021.9mb 76f 67f
2:23 7 13 mph 1021.9mb 76f 67f
2:08 9 13 mph 1021.9mb 76f 67f
1:53 7 13 mph 1021.9mb 76f 67f
1:38 7 11 mph 1021.9mb 76f 67f
1:23 7 11 mph 1021.9mb 76f 66f
1:08 9 16 mph 1021.8mb 76f 66f
12:53 9 16 mph 1021.9mb 76f 66f
12:38 11 18 mph 1021.9mb 76f 66f
12:23 9 13 mph 1021.7mb 76f 65f
12:08 11 18 mph 1021.7mb 76f 65f
11:53 13 20 mph 1021.7mb 76f 65f
11:38 13 20 mph 1021.7mb 76f 65f
11:23 11 18 mph 1021.6mb 76f 65f
11:08 13 20 mph 1021.5mb 76f 65f
10:53 16 25 mph 1021.3mb 76f 65f
10:38 16 22 mph 1021mb 76f 65f
10:23 18 22 mph 1020.9mb 76f 64f
10:08 18 25 mph 1020.8mb 76f 65f
9:53 18 27 mph 1020.8mb 76f 64f
9:38 18 27 mph 1020.6mb 76f 64f
9:23 18 25 mph 1020.5mb 76f 64f
9:08 18 25 mph 1020.3mb 76f 64f
8:53 20 27 mph 1020mb 76f 64f
8:38 20 29 mph 1020mb 76f 64f
8:23 18 27 mph 1019.8mb 76f 64f
8:08 20 27 mph 1019.5mb 76f 63f
7:53 20 25 mph 1019.3mb 76f 63f
7:38 18 27 mph 1019.2mb 76f 63f
7:23 18 25 mph 1018.9mb 76f 64f
7:08 20 25 mph 1018.7mb 76f 64f
6:53 18 25 mph 1018.1mb 76f 64f
6:38 18 25 mph 1018mb 76f 63f
6:23 18 25 mph 1017.7mb 76f 63f
6:08 18 25 mph 1017.3mb 76f 64f
5:53 18 27 mph 1017mb 76f 63f
5:38 16 22 mph 1016.7mb 76f 64f
5:23 16 22 mph 1016.6mb 76f 64f
5:08 16 22 mph 1016.4mb 76f 64f
4:53 16 22 mph 1016.2mb 76f 64f
4:38 18 25 mph 1016.1mb 76f 64f
4:23 18 25 mph 1015.9mb 76f 64f
4:08 18 25 mph 1015.6mb 76f 64f
3:53 16 20 mph 1015.5mb 76f 64f
3:38 16 22 mph 1015.5mb 76f 65f
3:23 16 20 mph 1015.3mb 76f 65f
3:08 16 22 mph 1015mb 76f 65f
2:53 16 22 mph 1015mb 76f 65f
2:38 16 20 mph 1015mb 76f 65f
2:23 16 22 mph 1014.9mb 76f 65f
2:08 16 20 mph 1015mb 76f 65f
1:53 11 20 mph 1014.8mb 76f 66f
1:38 13 18 mph 1014.6mb 76f 66f
1:23 13 20 mph 1014.4mb 76f 66f
1:08 13 20 mph 1014.7mb 76f 66f
12:53 13 18 mph 1014.2mb 76f 66f
12:38 13 18 mph 1013.7mb 76f 67f
12:23 18 22 mph 1013.4mb 76f 67f
12:08 16 20 mph 1012.9mb 76f 67f
jue 05/21 11:53 16 22 mph 1012.9mb 76f 68f
11:38 16 22 mph 1012.5mb 76f 68f
11:23 16 25 mph 1012.3mb 76f 68f
10:53 18 25 mph 1012mb 76f 69f